Perryton, TX

4:09 AM CDT on June 27, 2017 (GMT -0500)
Perryton Ochiltree County

Weather History for KPYX - December, 2012

Change the Weather History Date:

Wednesday, December 19, 2012

  Actual Average Record
Temperature  
Mean Temperature 45 °F -  
Max Temperature 62 °F 48 °F 71 °F (1979)
Min Temperature 28 °F 20 °F 2 °F (1983)
Degree Days  
Heating Degree Days 20    
Moisture  
Dew Point 27 °F    
Average Humidity 61    
Maximum Humidity 93    
Minimum Humidity 27    
Precipitation  
Precipitation 0.00 in - - ()
Sea Level Pressure  
Sea Level Pressure 29.64 in    
Wind  
Wind Speed 17 mph (SW)    
Max Wind Speed 39 mph    
Max Gust Speed 53 mph    
Visibility 9 miles    
Events      
Averages and records for this station are not official NWS values.
T = Trace of Precipitation, MM = Missing Value Source: NWS Daily Summary

Daily Weather History Graph

Daily Weather History Graph

Search for Another Location

Airport or City:

Trip Planner

Search our weather history database for the weather conditions in past years. The results will help you decide how hot, cold, wet, or windy it might be!

Date:

Astronomy

Dec. 19, 2012 Rise Set
Actual Time 7:50 AM CST 5:30 PM CST
Civil Twilight 7:21 AM CST 5:59 PM CST
Nautical Twilight 6:49 AM CST 6:31 PM CST
Astronomical Twilight 6:17 AM CST 7:03 PM CST
Moon 12:11 PM CST (12/19) No Moon Set
Length of Visible Light 10h 38m
Length of Day
9h 40m
Waxing Crescent, 45% of the Moon is Illuminated
Dec 19
Waxing Crescent
Dec 19
First Quarter
Dec 28
Full
Jan 4
Last Quarter
Jan 11
New

Hourly Weather History & Observations

Time (CST) Temp. Windchill Dew Point Humidity Pressure Visibility Wind Dir Wind Speed Gust Speed Precip Events Conditions
12:15 AM 42.8 °F 35.1 °F 23.0 °F 46% 29.71 in 10.0 mi South 16.1 mph - N/A   Clear
12:35 AM 42.8 °F 35.4 °F 23.0 °F 46% 29.69 in 10.0 mi South 15.0 mph - N/A   Clear
12:55 AM 41.0 °F 34.3 °F 23.0 °F 49% 29.69 in 10.0 mi South 11.5 mph - N/A   Clear
1:15 AM 41.0 °F 33.5 °F 23.0 °F 49% 29.68 in 10.0 mi SSE 13.8 mph - N/A   Clear
1:35 AM 41.0 °F 34.3 °F 23.0 °F 49% 29.67 in 10.0 mi SSE 11.5 mph - N/A   Clear
1:55 AM 41.0 °F 35.2 °F 24.8 °F 53% 29.67 in 10.0 mi South 9.2 mph - N/A   Clear
2:15 AM 41.0 °F 35.2 °F 26.6 °F 57% 29.66 in 10.0 mi SSE 9.2 mph - N/A   Clear
2:35 AM 41.0 °F 35.2 °F 26.6 °F 57% 29.66 in 10.0 mi South 9.2 mph - N/A   Clear
2:55 AM 41.0 °F 35.8 °F 28.4 °F 61% 29.66 in 10.0 mi South 8.1 mph - N/A   Clear
3:15 AM 42.8 °F 37.5 °F 28.4 °F 57% 29.63 in 10.0 mi SSE 9.2 mph - N/A   Clear
3:35 AM 42.8 °F 37.5 °F 28.4 °F 57% 29.63 in 10.0 mi SSE 9.2 mph - N/A   Clear
3:55 AM 42.8 °F 40.1 °F 28.4 °F 57% 29.63 in 10.0 mi South 4.6 mph - N/A   Clear
4:15 AM 41.0 °F 35.8 °F 28.4 °F 61% 29.61 in 10.0 mi SSE 8.1 mph - N/A   Clear
4:35 AM 41.0 °F 35.2 °F 28.4 °F 61% 29.60 in 10.0 mi SSE 9.2 mph - N/A   Clear
4:55 AM 41.0 °F 35.8 °F 28.4 °F 61% 29.59 in 10.0 mi SE 8.1 mph - N/A   Clear
5:15 AM 41.0 °F 35.8 °F 30.2 °F 65% 29.58 in 10.0 mi SSE 8.1 mph - N/A   Clear
5:35 AM 41.0 °F 35.8 °F 30.2 °F 65% 29.57 in 10.0 mi SSE 8.1 mph - N/A   Clear
5:55 AM 41.0 °F 35.8 °F 30.2 °F 65% 29.57 in 10.0 mi SSE 8.1 mph - N/A   Clear
6:15 AM 41.0 °F 35.8 °F 30.2 °F 65% 29.57 in 10.0 mi SSE 8.1 mph - N/A   Clear
6:35 AM 41.0 °F 35.8 °F 30.2 °F 65% 29.57 in 10.0 mi SSE 8.1 mph - N/A   Clear
6:55 AM 41.0 °F 35.8 °F 30.2 °F 65% 29.57 in 10.0 mi SSE 8.1 mph - N/A   Clear
7:15 AM 41.0 °F 35.2 °F 30.2 °F 65% 29.55 in 10.0 mi SSE 9.2 mph - N/A   Clear
7:35 AM 41.0 °F 35.8 °F 30.2 °F 65% 29.55 in 10.0 mi SSE 8.1 mph - N/A   Clear
7:55 AM 41.0 °F 35.2 °F 30.2 °F 65% 29.55 in 10.0 mi SSE 9.2 mph - N/A   Clear
8:15 AM 42.8 °F 37.5 °F 30.2 °F 61% 29.54 in 10.0 mi SSE 9.2 mph - N/A   Clear
8:35 AM 42.8 °F 38.0 °F 30.2 °F 61% 29.54 in 10.0 mi South 8.1 mph - N/A   Clear
8:55 AM 42.8 °F 39.3 °F 30.2 °F 61% 29.54 in 10.0 mi South 5.8 mph - N/A   Clear
9:15 AM 42.8 °F 38.6 °F 30.2 °F 61% 29.53 in 10.0 mi South 6.9 mph - N/A   Clear
9:35 AM 42.8 °F 38.0 °F 30.2 °F 61% 29.55 in 10.0 mi South 8.1 mph - N/A   Clear
9:55 AM 44.6 °F 40.2 °F 32.0 °F 61% 29.54 in 10.0 mi South 8.1 mph - N/A   Clear
10:15 AM 44.6 °F 40.2 °F 32.0 °F 61% 29.53 in 10.0 mi South 8.1 mph - N/A   Clear
10:35 AM 46.4 °F 41.1 °F 32.0 °F 57% 29.51 in 10.0 mi South 11.5 mph - N/A   Clear
10:55 AM 50.0 °F - 30.2 °F 47% 29.49 in 10.0 mi SSE 10.4 mph - N/A   Clear
11:15 AM 55.4 °F - 28.4 °F 36% 29.50 in 10.0 mi SSW 13.8 mph - N/A   Clear
11:35 AM 53.6 °F - 28.4 °F 38% 29.49 in 10.0 mi SSW 12.7 mph - N/A   Clear
11:55 AM 57.2 °F - 28.4 °F 33% 29.47 in 10.0 mi South 18.4 mph - N/A   Clear
12:15 PM 59.0 °F - 28.4 °F 31% 29.45 in 10.0 mi SSW 16.1 mph 25.3 mph N/A   Clear
12:35 PM 60.8 °F - 28.4 °F 29% 29.46 in 10.0 mi SW 16.1 mph 20.7 mph N/A   Clear
12:55 PM 62.6 °F - 28.4 °F 27% 29.44 in 10.0 mi SW 11.5 mph 17.3 mph N/A   Clear
1:15 PM 62.6 °F - 28.4 °F 27% 29.44 in 10.0 mi NW 26.5 mph 31.1 mph N/A   Clear
1:55 PM 53.6 °F - 23.0 °F 30% 29.46 in 10.0 mi NW 25.3 mph 32.2 mph N/A   Clear
2:15 PM 51.8 °F - 23.0 °F 33% 29.46 in 10.0 mi NW 21.9 mph 29.9 mph N/A   Clear
2:35 PM 50.0 °F - 21.2 °F 32% 29.47 in 10.0 mi NW 26.5 mph 31.1 mph N/A   Clear
2:55 PM 46.4 °F 37.5 °F 19.4 °F 34% 29.49 in 10.0 mi NW 27.6 mph 34.5 mph N/A   Clear
3:35 PM 46.4 °F 37.2 °F 19.4 °F 34% 29.50 in 10.0 mi NW 29.9 mph 40.3 mph N/A   Clear
3:55 PM 44.6 °F 35.1 °F 19.4 °F 37% 29.52 in 10.0 mi NW 27.6 mph 33.4 mph N/A   Clear
4:15 PM 44.6 °F 34.4 °F 21.2 °F 39% 29.55 in 10.0 mi NW 32.2 mph 40.3 mph N/A   Clear
4:35 PM 42.8 °F 31.3 °F 21.2 °F 42% 29.57 in 10.0 mi NW 36.8 mph 41.4 mph N/A   Clear
4:55 PM 41.0 °F 29.3 °F 23.0 °F 49% 29.57 in 10.0 mi NW 33.4 mph 39.1 mph N/A   Clear
5:15 PM 37.4 °F 24.6 °F 23.0 °F 56% 29.62 in 10.0 mi NW 32.2 mph 40.3 mph N/A   Clear
5:35 PM 33.8 °F 19.6 °F 26.6 °F 75% 29.64 in 10.0 mi NW 32.2 mph 41.4 mph N/A   Clear
5:55 PM 33.8 °F 19.6 °F 26.6 °F 75% 29.67 in 10.0 mi WNW 32.2 mph 43.7 mph N/A   Clear
6:15 PM 33.8 °F 19.6 °F 26.6 °F 75% 29.69 in 10.0 mi WNW 32.2 mph 39.1 mph N/A   Mostly Cloudy
6:35 PM 32.0 °F 16.2 °F 28.4 °F 87% 29.72 in 4.0 mi NW 38.0 mph 47.2 mph N/A   Overcast
6:55 PM 32.0 °F 16.2 °F 28.4 °F 87% 29.73 in 2.5 mi NW 38.0 mph 47.2 mph N/A   Overcast
7:15 PM 30.2 °F 13.5 °F 28.4 °F 93% 29.76 in 0.8 mi NW 39.1 mph 48.3 mph N/A   Overcast
7:35 PM 30.2 °F 13.7 °F 28.4 °F 93% 29.78 in 0.5 mi NNW 38.0 mph 50.6 mph N/A   Overcast
7:55 PM 30.2 °F 13.9 °F 28.4 °F 93% 29.80 in 0.8 mi NNW 36.8 mph 47.2 mph N/A   Overcast
8:15 PM 28.4 °F 11.4 °F 26.6 °F 93% 29.83 in 0.5 mi NNW 36.8 mph 50.6 mph N/A   Overcast
8:35 PM 28.4 °F 11.6 °F 26.6 °F 93% 29.85 in 1.0 mi NNW 35.7 mph 47.2 mph N/A   Overcast
8:55 PM 28.4 °F 11.0 °F 26.6 °F 93% 29.88 in 1.2 mi NW 39.1 mph 52.9 mph N/A   Overcast
9:15 PM 28.4 °F 11.8 °F 24.8 °F 86% 29.90 in 3.0 mi NNW 34.5 mph 47.2 mph N/A   Overcast
9:35 PM 30.2 °F 14.5 °F 23.0 °F 75% 29.91 in 7.0 mi NNW 33.4 mph 47.2 mph N/A   Overcast
9:55 PM 28.4 °F 11.0 °F 23.0 °F 80% 29.93 in 10.0 mi NNW 39.1 mph 47.2 mph N/A   Overcast
10:15 PM 28.4 °F 12.3 °F 23.0 °F 80% 29.94 in 10.0 mi NNW 32.2 mph 46.0 mph N/A   Mostly Cloudy
10:35 PM 28.4 °F 12.3 °F 23.0 °F 80% 29.97 in 10.0 mi NW 32.2 mph 43.7 mph N/A   Mostly Cloudy
10:55 PM 30.2 °F 14.5 °F 23.0 °F 75% 29.98 in 10.0 mi NW 33.4 mph 41.4 mph N/A   Overcast
11:15 PM 30.2 °F 14.5 °F 24.8 °F 80% 30.00 in 3.0 mi NW 33.4 mph 42.6 mph N/A   Overcast
11:35 PM 28.4 °F 11.6 °F 26.6 °F 93% 30.01 in 1.8 mi NW 35.7 mph 43.7 mph N/A   Overcast
11:55 PM 28.4 °F 12.5 °F 24.8 °F 86% 30.03 in 3.0 mi NW 31.1 mph 38.0 mph N/A   Overcast